• In Russia
  • List of Countries
  • For 7 days
  • Water Temperature
  • Satellite Maps
  • Weather Map
  • Weather Widgets
  • user-avatar
    Login

    Hourly Weather Wiktoria

    Today, 25 June, Monday

    Time Temperature Precipitation Wind Pressure Humidity
    00:00 +5°C° 0 mm 2 mps 761 mmHg 93%
    01:00 +4°C° 0 mm 2 mps 761 mmHg 93%
    02:00 +4°C° 0 mm 2 mps 761 mmHg 93%
    03:00 +4°C° 0 mm 2 mps 761 mmHg 93%
    04:00 +4°C° 0 mm 2 mps 760 mmHg 93%
    05:00 +4°C° 0 mm 2 mps 761 mmHg 93%
    06:00 +3°C° 0 mm 2 mps 761 mmHg 93%
    07:00 +3°C° 0 mm 2 mps 761 mmHg 93%
    08:00 +5°C° 0 mm 2 mps 761 mmHg 88%
    09:00 +7°C° 0 mm 2 mps 762 mmHg 82%
    10:00 +9°C° 0 mm 2 mps 762 mmHg 77%
    11:00 +10°C° 0 mm 2 mps 761 mmHg 72%
    12:00 +12°C° 0 mm 2 mps 761 mmHg 67%
    13:00 +14°C° 0 mm 2 mps 761 mmHg 62%
    14:00 +14°C° 0 mm 1 mps 761 mmHg 64%
    15:00 +14°C° 0 mm 1 mps 760 mmHg 66%
    16:00 +13°C° 0 mm 1 mps 760 mmHg 69%
    17:00 +12°C° 0 mm 1 mps 761 mmHg 74%
    18:00 +10°C° 0 mm 1 mps 761 mmHg 80%
    19:00 +8°C° 0 mm 1 mps 761 mmHg 86%
    20:00 +7°C° 0 mm 2 mps 761 mmHg 88%
    21:00 +6°C° 0 mm 2 mps 762 mmHg 90%
    22:00 +6°C° 0 mm 2 mps 762 mmHg 91%
    23:00 +6°C° 0 mm 2 mps 762 mmHg 92%

    Tomorrow, 26 June, Tuesday

    Time Temperature Precipitation Wind Pressure Humidity
    00:00 +5°C° 0 mm 2 mps 762 mmHg 92%
    01:00 +5°C° 0 mm 2 mps 762 mmHg 93%
    02:00 +5°C° 0 mm 2 mps 762 mmHg 93%
    03:00 +4°C° 0 mm 2 mps 762 mmHg 93%
    04:00 +5°C° 0 mm 1 mps 762 mmHg 92%
    05:00 +5°C° 0 mm 1 mps 762 mmHg 92%
    06:00 +5°C° 0 mm 1 mps 762 mmHg 92%
    07:00 +4°C° 0 mm 1 mps 762 mmHg 92%
    08:00 +5°C° 0 mm 2 mps 763 mmHg 86%
    09:00 +7°C° 0 mm 2 mps 763 mmHg 80%
    10:00 +8°C° 0 mm 2 mps 763 mmHg 73%
    11:00 +9°C° 0 mm 2 mps 763 mmHg 69%
    12:00 +12°C° 0 mm 2 mps 762 mmHg 64%
    13:00 +13°C° 0 mm 2 mps 762 mmHg 59%
    14:00 +13°C° 0 mm 2 mps 761 mmHg 63%
    15:00 +12°C° 0 mm 1 mps 761 mmHg 66%
    16:00 +12°C° 0 mm 1 mps 761 mmHg 70%
    17:00 +11°C° 0 mm 1 mps 761 mmHg 74%
    18:00 +9°C° 0 mm 1 mps 761 mmHg 78%
    19:00 +8°C° 0 mm 1 mps 762 mmHg 82%
    20:00 +8°C° 0 mm 1 mps 762 mmHg 81%
    21:00 +7°C° 0 mm 2 mps 762 mmHg 81%
    22:00 +7°C° 0 mm 2 mps 762 mmHg 81%
    23:00 +7°C° 0 mm 2 mps 762 mmHg 78%

    Day after tomorrow, 27 June, Wednesday

    Time Temperature Precipitation Wind Pressure Humidity
    00:00 +7°C° 0 mm 2 mps 761 mmHg 75%
    01:00 +7°C° 0 mm 2 mps 761 mmHg 73%
    02:00 +8°C° 0 mm 2 mps 761 mmHg 71%
    03:00 +8°C° 0 mm 2 mps 761 mmHg 69%
    04:00 +8°C° 0 mm 2 mps 761 mmHg 68%
    05:00 +8°C° 0.1 mm 2 mps 761 mmHg 70%
    06:00 +8°C° 0.1 mm 1 mps 761 mmHg 73%
    07:00 +8°C° 0.1 mm 1 mps 761 mmHg 75%
    08:00 +8°C° 0.3 mm 2 mps 761 mmHg 77%
    09:00 +8°C° 0.3 mm 2 mps 761 mmHg 79%
    10:00 +9°C° 0.3 mm 2 mps 761 mmHg 81%
    11:00 +9°C° 0.2 mm 3 mps 760 mmHg 81%
    12:00 +10°C° 0.2 mm 3 mps 759 mmHg 81%
    13:00 +10°C° 0.2 mm 3 mps 759 mmHg 81%
    14:00 +10°C° 0.2 mm 3 mps 759 mmHg 83%
    15:00 +10°C° 0.2 mm 3 mps 758 mmHg 84%
    16:00 +10°C° 0.2 mm 3 mps 758 mmHg 86%
    17:00 +9°C° 0.4 mm 3 mps 758 mmHg 88%
    18:00 +9°C° 0.4 mm 2 mps 758 mmHg 90%
    19:00 +8°C° 0.4 mm 2 mps 758 mmHg 92%
    20:00 +8°C° 0.7 mm 2 mps 758 mmHg 93%
    21:00 +8°C° 0.7 mm 2 mps 757 mmHg 94%
    22:00 +8°C° 0.7 mm 2 mps 757 mmHg 94%
    23:00 +8°C° 1.1 mm 2 mps 757 mmHg 95%

    28 June, Thursday

    Time Temperature Precipitation Wind Pressure Humidity
    00:00 +8°C° 1.1 mm 2 mps 756 mmHg 95%
    01:00 +8°C° 1.1 mm 2 mps 756 mmHg 95%
    02:00 +8°C° 0.9 mm 2 mps 755 mmHg 95%
    03:00 +8°C° 0.9 mm 2 mps 755 mmHg 95%
    04:00 +8°C° 0.9 mm 2 mps 754 mmHg 95%
    05:00 +9°C° 0.3 mm 1 mps 754 mmHg 96%
    06:00 +9°C° 0.3 mm 1 mps 754 mmHg 96%
    07:00 +9°C° 0.3 mm 1 mps 754 mmHg 96%
    08:00 +9°C° 0.1 mm 1 mps 754 mmHg 96%
    09:00 +9°C° 0.1 mm 2 mps 754 mmHg 95%
    10:00 +9°C° 0.1 mm 2 mps 755 mmHg 95%
    11:00 +9°C° 0.1 mm 3 mps 754 mmHg 94%
    12:00 +10°C° 0.1 mm 3 mps 754 mmHg 92%
    13:00 +10°C° 0.1 mm 3 mps 754 mmHg 91%
    14:00 +10°C° 0.1 mm 3 mps 754 mmHg 91%
    15:00 +10°C° 0.1 mm 3 mps 754 mmHg 91%
    16:00 +10°C° 0.1 mm 2 mps 753 mmHg 91%
    17:00 +9°C° 0.1 mm 2 mps 754 mmHg 92%
    18:00 +9°C° 0.1 mm 2 mps 754 mmHg 93%
    19:00 +8°C° 0.1 mm 2 mps 754 mmHg 94%
    20:00 +8°C° 0 mm 2 mps 754 mmHg 94%
    21:00 +8°C° 0 mm 2 mps 754 mmHg 94%
    22:00 +7°C° 0 mm 2 mps 754 mmHg 95%
    23:00 +7°C° 0 mm 2 mps 754 mmHg 95%

    29 June, Friday

    Time Temperature Precipitation Wind Pressure Humidity
    00:00 +6°C° 0 mm 2 mps 754 mmHg 95%
    01:00 +6°C° 0 mm 2 mps 754 mmHg 95%
    02:00 +6°C° 0 mm 2 mps 753 mmHg 96%
    03:00 +5°C° 0 mm 2 mps 753 mmHg 96%
    04:00 +5°C° 0 mm 2 mps 753 mmHg 96%
    05:00 +5°C° 0 mm 2 mps 753 mmHg 96%
    06:00 +4°C° 0 mm 3 mps 753 mmHg 96%
    07:00 +4°C° 0 mm 3 mps 754 mmHg 96%
    08:00 +5°C° 0 mm 3 mps 754 mmHg 93%
    09:00 +6°C° 0 mm 4 mps 754 mmHg 90%
    10:00 +7°C° 0 mm 4 mps 754 mmHg 87%
    11:00 +8°C° 0 mm 4 mps 753 mmHg 80%
    12:00 +10°C° 0 mm 4 mps 753 mmHg 73%
    13:00 +12°C° 0 mm 5 mps 753 mmHg 67%
    14:00 +11°C° 0 mm 4 mps 752 mmHg 68%
    15:00 +11°C° 0 mm 4 mps 752 mmHg 69%
    16:00 +11°C° 0 mm 3 mps 752 mmHg 70%
    17:00 +10°C° 0.2 mm 3 mps 753 mmHg 76%
    18:00 +9°C° 0.2 mm 3 mps 753 mmHg 81%
    19:00 +7°C° 0.2 mm 2 mps 754 mmHg 87%
    20:00 +6°C° 0 mm 2 mps 754 mmHg 90%
    21:00 +5°C° 0 mm 2 mps 754 mmHg 92%
    22:00 +4°C° 0 mm 2 mps 755 mmHg 95%
    23:00 +5°C° 0 mm 1 mps 755 mmHg 95%

    30 June, Saturday

    Time Temperature Precipitation Wind Pressure Humidity
    00:00 +4°C° 0 mm 1 mps 755 mmHg 95%
    01:00 +4°C° 0 mm 1 mps 755 mmHg 96%
    02:00 +3°C° 0 mm 1 mps 755 mmHg 95%
    03:00 +3°C° 0 mm 1 mps 756 mmHg 95%
    04:00 +3°C° 0 mm 1 mps 756 mmHg 95%
    05:00 +3°C° 0 mm 1 mps 756 mmHg 95%
    06:00 +3°C° 0 mm 1 mps 757 mmHg 96%
    07:00 +3°C° 0 mm 1 mps 757 mmHg 96%
    08:00 +4°C° 0 mm 1 mps 758 mmHg 93%
    09:00 +6°C° 0 mm 1 mps 758 mmHg 91%
    10:00 +7°C° 0 mm 1 mps 758 mmHg 88%
    11:00 +7°C° 0 mm 2 mps 758 mmHg 84%
    12:00 +8°C° 0 mm 2 mps 758 mmHg 79%
    13:00 +9°C° 0 mm 2 mps 757 mmHg 75%
    14:00 +9°C° 0 mm 2 mps 758 mmHg 76%
    15:00 +9°C° 0 mm 2 mps 758 mmHg 78%
    16:00 +9°C° 0 mm 2 mps 758 mmHg 79%
    17:00 +9°C° 0 mm 2 mps 758 mmHg 82%
    18:00 +8°C° 0 mm 2 mps 758 mmHg 84%
    19:00 +8°C° 0 mm 2 mps 759 mmHg 86%
    20:00 +7°C° 0.1 mm 2 mps 759 mmHg 87%
    21:00 +7°C° 0.1 mm 2 mps 759 mmHg 87%
    22:00 +7°C° 0.1 mm 2 mps 759 mmHg 88%
    23:00 +7°C° 0.1 mm 2 mps 760 mmHg 88%
    Show more